STARLINK-2672, 48650

Orbit data source: Space-Track

STARLINK-2672, 48650 is a payload satellite owned by SpaceX/Seattle (US) in LEO that was launched on Wed, 26 May 2021 UTC via an FALCON 9 launch vehicle from the Air Force Eastern Test Range (AFETR). Payload-class satellites include a variety of spacecraft equipped with specific instruments for various scientific and technological missions. These include communications satellites like Starlink; space stations such as the ISS; scientific satellites like the Hubble; Earth observation satellites from companies like Planet Labs, Umbra, and HawkEye 360; GPS; miniature CubeSats for education and research; and military/defense satellites.

Loading next visibility...
Identifier
48650, 2021-044N
Orbit
LEO
Country
Flag of USUS
Related business
Manufacturer
SpaceX/Seattle
Mission
Operational Commercial Communications
Bus & Motor
STARLINK, Unknown motor
Mass
260 kg wet, ~248 kg dry
Launch date (UTC)
2021-05-26 (5 years ago)
Launch vehicle
FALCON 9
Launch site
Air Force Eastern Test Range (AFETR)
Object type
Payload
Rocket body
Debris
Shape & HBR
Box + 1 Pan, 10.1 m
Radar Cross Section
13.562 m², Large (>1 m²)

Expand to show TLE details & history
Last TLE update: 22 hours ago

TLE from 22 hours ago
0 STARLINK-2672
1 48650U 21044N   25348.70028555 -.00003235  00000-0 -19840-3 0  9998
2 48650  53.0545 143.1480 0001387  87.4006 272.7141 15.06397994250893
Epoch: 2025-12-14T16:48Z
TLE epoch observation values (Epoch: 2025-12-14T16:48:24.671Z)
Latitude
-0.00008°
Longitude
167.4357°
Altitude
548.052 km
Speed
7.589 km/s
True Right ascension
09h 32m 35s
True Declination
0° 00' 00"
Sunlit
Object was in full shadow at epoch
Visualization orbit readout
Latitude
Unknown
Longitude
Unknown
Altitude
Unknown
Speed
Unknown
Apparent Right ascension
Unknown
Apparent Declination
Unknown
Sunlit
N/A
Visualization observer readout
Local Sidereal Time
13:18:21
Azimuth
Unknown
Elevation
Unknown
Doppler factor
Unknown
Orbital elements
Apogee altitude
548.449 km
Perigee altitude
546.528 km
Semi-major axis
6,925.625 km
Eccentricity
0.00014
Inclination
53.0545°
RAAN
143.148°
Arg. of periapsis
87.4006°
True anomaly
272.69822°
Mean anomaly
272.7141°
Eccentric anomaly
272.70616°
Mean motion
3.76578 °/min
Orbital period
95.6 mins
BSTAR
-0.0001984
Loading maneuver chart data...
Computing Atmospheric mass density...
Loading historical data...
Loading historical data...
Loading historical data...
Loading historical data...
Loading historical data...
Loading historical data...
Loading historical data...

Documentation

Showing up to 5 results
|